SQ5DCP-1 Weather Reports


Display with metric or nautical units.
time (UTC)temp
F
wind
direction
speed
MPH
gust
MPH
rain 1hr
in
rain 24hr
in
rain mn
in
humidity
%
barometer
mb
20181017092526 53 120 1.0 2.0 0.00 0.00 0.00 75 1022.2
20181017092025 53 131 0.0 2.0 0.00 0.00 0.00 75 1022.2
20181017091554 53 117 1.0 2.0 0.00 0.00 0.00 76 1022.2
20181017091024 52 73 1.0 4.0 0.00 0.00 0.00 76 1022.2
20181017090524 52 94 2.0 4.0 0.00 0.00 0.00 76 1022.2
20181017090023 52 105 1.0 2.0 0.00 0.00 0.00 77 1022.2
20181017085523 52 99 2.0 4.0 0.00 0.00 0.00 77 1022.2
20181017085022 52 84 2.0 4.0 0.00 0.00 0.00 77 1022.2
20181017084522 52 93 2.0 4.0 0.00 0.00 0.00 77 1022.2
20181017084022 51 87 2.0 5.0 0.00 0.00 0.00 78 1022.2
20181017083521 50 87 3.0 5.0 0.00 0.00 0.00 79 1022.2
20181017083050 50 88 2.0 4.0 0.00 0.00 0.00 80 1022.1
20181017082550 49 103 2.0 4.0 0.00 0.00 0.00 80 1022.1
20181017082020 49 122 1.0 4.0 0.00 0.00 0.00 80 1022.2
20181017081519 49 120 2.0 5.0 0.00 0.00 0.00 80 1022.2
20181017081049 49 119 2.0 5.0 0.00 0.00 0.00 81 1022.2
20181017080519 48 92 2.0 5.0 0.00 0.00 0.00 81 1022.2
20181017080019 48 100 2.0 5.0 0.00 0.00 0.00 81 1022.2
20181017075517 48 101 2.0 5.0 0.00 0.00 0.00 82 1022.2
20181017075047 48 89 2.0 5.0 0.00 0.00 0.00 82 1022.2
20181017074547 48 108 2.0 9.0 0.00 0.00 0.00 82 1022.2
20181017074046 48 122 2.0 6.0 0.00 0.00 0.00 82 1022.2
20181017073546 48 122 3.0 5.0 0.00 0.00 0.00 83 1022.2
20181017073045 48 130 3.0 5.0 0.00 0.00 0.00 83 1022.3
20181017072545 48 132 3.0 6.0 0.00 0.00 0.00 84 1022.2
20181017072045 48 127 3.0 6.0 0.00 0.00 0.00 85 1022.2
20181017071544 47 137 4.0 6.0 0.00 0.00 0.00 86 1022.1
20181017071044 46 127 2.0 5.0 0.00 0.00 0.00 87 1022.1
20181017070543 46 133 2.0 5.0 0.00 0.00 0.00 87 1022.1
20181017070043 45 125 1.0 4.0 0.00 0.00 0.00 87 1022.1
20181017065542 44 132 2.0 4.0 0.00 0.00 0.00 88 1022.1
20181017065042 44 132 2.0 4.0 0.00 0.00 0.00 88 1022.0
20181017064543 44 106 2.0 4.0 0.00 0.00 0.00 88 1022.0
20181017064041 43 131 2.0 4.0 0.00 0.00 0.00 88 1022.1
20181017063541 43 124 2.0 4.0 0.00 0.00 0.00 87 1022.1
20181017063040 42 106 2.0 5.0 0.00 0.00 0.00 87 1022.1
20181017062540 42 101 2.0 5.0 0.00 0.00 0.00 87 1022.0
20181017062039 41 92 2.0 4.0 0.00 0.00 0.00 87 1022.0
20181017061539 41 86 3.0 5.0 0.00 0.00 0.00 87 1022.0
20181017061039 41 92 2.0 5.0 0.00 0.00 0.00 87 1022.1
20181017060538 40 107 1.0 2.0 0.00 0.00 0.00 87 1022.2
20181017060037 40 128 1.0 2.0 0.00 0.00 0.00 87 1022.2
20181017055537 40 112 0.0 2.0 0.00 0.00 0.00 87 1022.1
20181017055037 40 112 0.0 2.0 0.00 0.00 0.00 87 1022.1
20181017054536 40 112 1.0 2.0 0.00 0.00 0.00 87 1022.0
20181017054036 40 112 0.0 2.0 0.00 0.00 0.00 87 1022.0
20181017053535 40 114 1.0 2.0 0.00 0.00 0.00 87 1022.0
20181017053035 40 135 1.0 2.0 0.00 0.00 0.00 87 1022.0
20181017052535 40 135 1.0 6.0 0.00 0.00 0.00 87 1022.0
20181017052034 40 135 0.0 2.0 0.00 0.00 0.00 86 1021.9
20181017051534 40 135 1.0 5.0 0.00 0.00 0.00 86 1022.0
20181017051033 40 120 1.0 4.0 0.00 0.00 0.00 86 1021.9
20181017050533 40 112 0.0 2.0 0.00 0.00 0.00 86 1021.7
20181017050032 40 112 0.0 2.0 0.00 0.00 0.00 86 1021.8
20181017045532 40 112 0.0 2.0 0.00 0.00 0.00 86 1021.7
20181017045032 40 112 1.0 1.0 0.00 0.00 0.00 86 1021.7
20181017044701 40 0.0 0.0 0.00 0.00 0.00 86 1021.7
20181017043601 40 0.0 0.0 0.00 0.00 0.00 86 1021.8
20181017043230 40 0.0 0.0 0.00 0.00 0.00 86 1021.7
20181017042030 40 0.0 1.0 0.00 0.00 0.00 86 1021.7
20181017041529 40 112 0.0 1.0 0.00 0.00 0.00 86 1021.7
20181017041159 40 0.0 0.0 0.00 0.00 0.00 87 1021.7
20181017040528 40 112 0.0 2.0 0.00 0.00 0.00 87 1021.7
20181017040058 40 112 0.0 5.0 0.00 0.00 0.00 87 1021.7
20181017035527 40 112 0.0 4.0 0.00 0.00 0.00 87 1021.7
20181017035057 40 112 0.0 1.0 0.00 0.00 0.00 87 1021.7
20181017034527 40 112 0.0 1.0 0.00 0.00 0.00 87 1021.7
20181017034056 40 112 1.0 2.0 0.00 0.00 0.00 87 1021.6
20181017033526 40 116 1.0 2.0 0.00 0.00 0.00 87 1021.5
20181017033025 40 112 1.0 2.0 0.00 0.00 0.00 87 1021.5
20181017032525 40 100 1.0 2.0 0.00 0.00 0.00 87 1021.5
20181017032024 40 104 1.0 2.0 0.00 0.00 0.00 87 1021.5
20181017031526 40 94 1.0 4.0 0.00 0.00 0.00 87 1021.6
20181017031024 40 112 1.0 5.0 0.00 0.00 0.00 87 1021.7
20181017030523 40 112 1.0 5.0 0.00 0.00 0.00 86 1021.7
20181017030023 40 112 1.0 2.0 0.00 0.00 0.00 86 1021.6
20181017025522 40 112 1.0 2.0 0.00 0.00 0.00 86 1021.6
20181017025052 40 112 1.0 2.0 0.00 0.00 0.00 86 1021.7
20181017024522 40 112 2.0 6.0 0.00 0.00 0.00 86 1021.7
20181017024022 40 112 1.0 2.0 0.00 0.00 0.00 86 1021.6
20181017023521 40 112 1.0 4.0 0.00 0.00 0.00 86 1021.6
20181017023020 40 112 0.0 2.0 0.00 0.00 0.00 86 1021.5
20181017022650 40 0.0 0.0 0.00 0.00 0.00 86 1021.5
20181017022220 40 0.0 0.0 0.00 0.00 0.00 86 1021.5
20181017021919 40 112 1.0 4.0 0.00 0.00 0.00 86 1021.4
20181017021049 40 112 0.0 4.0 0.00 0.00 0.00 86 1021.4
20181017020549 40 112 0.0 2.0 0.00 0.00 0.00 86 1021.4
20181017020048 40 112 0.0 5.0 0.00 0.00 0.00 86 1021.4
20181017015547 40 112 1.0 5.0 0.00 0.00 0.00 86 1021.4
20181017015017 40 112 1.0 4.0 0.00 0.00 0.00 86 1021.4
20181017014546 40 112 1.0 8.0 0.00 0.00 0.00 86 1021.4
20181017014046 40 132 1.0 5.0 0.00 0.00 0.00 86 1021.5
20181017013516 41 135 2.0 5.0 0.00 0.00 0.00 86 1021.6
20181017013045 41 120 2.0 5.0 0.00 0.00 0.00 86 1021.7
20181017012544 41 112 1.0 2.0 0.00 0.00 0.00 86 1021.6
20181017012044 41 112 1.0 2.0 0.00 0.00 0.00 86 1021.6
20181017011543 41 102 1.0 6.0 0.00 0.00 0.00 85 1021.7
20181017011043 41 107 2.0 4.0 0.00 0.00 0.00 85 1021.7
20181017010543 41 112 1.0 2.0 0.00 0.00 0.00 85 1021.7
20181017010042 41 112 1.0 6.0 0.00 0.00 0.00 85 1021.7
20181017005542 41 116 1.0 4.0 0.00 0.00 0.00 84 1021.7
20181017005041 41 112 2.0 6.0 0.00 0.00 0.00 84 1021.7
20181017004541 41 95 4.0 8.0 0.00 0.00 0.00 84 1021.7
20181017004041 41 102 2.0 5.0 0.00 0.00 0.00 84 1021.7
20181017003540 41 112 1.0 5.0 0.00 0.00 0.00 84 1021.7
20181017003040 41 112 1.0 2.0 0.00 0.00 0.00 84 1021.7
20181017002539 42 0.0 0.0 0.00 0.00 0.00 85 1021.7
20181017002039 42 112 0.0 1.0 0.00 0.00 0.00 85 1021.7
20181017001538 42 112 0.0 1.0 0.00 0.00 0.00 85 1021.7
20181017001038 42 112 0.0 1.0 0.00 0.00 0.00 85 1021.6
20181017000637 42 112 0.0 2.0 0.00 0.00 0.00 85 1021.7
20181017000037 42 112 1.0 4.0 0.00 0.00 0.00 85 1021.7
20181016235537 42 112 1.0 4.0 0.00 0.00 0.00 85 1021.7
20181016235106 42 112 2.0 5.0 0.00 0.00 0.00 85 1021.7
20181016234536 43 112 1.0 2.0 0.00 0.00 0.00 85 1021.8
20181016234035 43 112 1.0 2.0 0.00 0.00 0.00 85 1021.8
20181016233535 43 112 1.0 6.0 0.00 0.00 0.00 85 1021.8
20181016233034 43 112 1.0 5.0 0.00 0.00 0.00 85 1021.8
20181016232534 43 112 1.0 2.0 0.00 0.00 0.00 85 1021.8
20181016232034 43 112 1.0 2.0 0.00 0.00 0.00 85 1021.8
20181016231533 43 112 1.0 2.0 0.00 0.00 0.00 85 1021.8
20181016231033 43 112 0.0 2.0 0.00 0.00 0.00 85 1021.8
20181016230532 43 112 1.0 2.0 0.00 0.00 0.00 85 1021.8
20181016230202 43 112 1.0 2.0 0.00 0.00 0.00 85 1021.8
20181016225601 43 112 1.0 2.0 0.00 0.00 0.00 85 1021.8
20181016225031 44 114 1.0 2.0 0.00 0.00 0.00 84 1021.8
20181016224531 44 112 1.0 4.0 0.00 0.00 0.00 84 1021.9
20181016224031 44 100 1.0 4.0 0.00 0.00 0.00 83 1021.8
20181016223530 44 109 1.0 4.0 0.00 0.00 0.00 83 1021.8
20181016223030 44 90 1.0 4.0 0.00 0.00 0.00 83 1021.9
20181016222529 44 90 1.0 2.0 0.00 0.00 0.00 83 1021.9
20181016222059 44 90 1.0 2.0 0.00 0.00 0.00 83 1021.9
20181016221528 44 90 1.0 2.0 0.00 0.00 0.00 83 1021.9
20181016221028 44 90 1.0 2.0 0.00 0.00 0.00 82 1021.9
20181016220557 44 90 0.0 1.0 0.00 0.00 0.00 83 1021.9
20181016220027 45 90 1.0 2.0 0.00 0.00 0.00 83 1021.9
20181016215557 45 103 1.0 2.0 0.00 0.00 0.00 83 1021.9
20181016215056 45 106 1.0 2.0 0.00 0.00 0.00 83 1021.9
20181016214526 45 90 1.0 4.0 0.00 0.00 0.00 82 1021.9
20181016214025 45 90 1.0 4.0 0.00 0.00 0.00 82 1021.9
20181016213525 45 95 1.0 2.0 0.00 0.00 0.00 82 1021.8
20181016213054 45 112 1.0 2.0 0.00 0.00 0.00 82 1021.8
20181016212524 45 102 1.0 2.0 0.00 0.00 0.00 81 1021.9
20181016212054 45 94 1.0 4.0 0.00 0.00 0.00 81 1021.8
20181016211523 45 104 2.0 5.0 0.00 0.00 0.00 81 1021.8
20181016211023 46 118 1.0 4.0 0.00 0.00 0.00 81 1021.9
20181016210522 46 127 1.0 4.0 0.00 0.00 0.00 81 1022.0
20181016210022 46 128 1.0 4.0 0.00 0.00 0.00 81 1021.9
20181016205521 46 118 1.0 2.0 0.00 0.00 0.00 81 1021.9
20181016205051 46 112 1.0 2.0 0.00 0.00 0.00 80 1021.9
20181016204520 46 112 1.0 6.0 0.00 0.00 0.00 80 1021.9
20181016204020 47 107 1.0 5.0 0.00 0.00 0.00 80 1021.9
20181016203551 47 112 1.0 2.0 0.00 0.00 0.00 80 1021.9
20181016203049 47 112 1.0 2.0 0.00 0.00 0.00 80 1021.8
20181016202519 47 112 1.0 2.0 0.00 0.00 0.00 80 1021.9
20181016202018 47 112 1.0 2.0 0.00 0.00 0.00 80 1021.9
20181016201548 47 112 1.0 4.0 0.00 0.00 0.00 80 1022.0
20181016201017 47 112 1.0 2.0 0.00 0.00 0.00 80 1022.0
20181016200547 47 112 1.0 4.0 0.00 0.00 0.00 80 1022.0
20181016200046 47 112 1.0 2.0 0.00 0.00 0.00 80 1022.0
20181016195616 47 112 1.0 2.0 0.00 0.00 0.00 80 1022.0
20181016195045 47 112 1.0 2.0 0.00 0.00 0.00 80 1022.1
20181016194545 48 112 1.0 2.0 0.00 0.00 0.00 80 1022.1
20181016194044 48 112 1.0 2.0 0.00 0.00 0.00 80 1022.1
20181016193544 48 112 1.0 2.0 0.00 0.00 0.00 80 1022.2
20181016193043 48 112 1.0 6.0 0.00 0.00 0.00 80 1022.2
20181016192543 48 112 1.0 2.0 0.00 0.00 0.00 80 1022.2
20181016192112 48 112 1.0 2.0 0.00 0.00 0.00 80 1022.2
20181016191542 48 112 1.0 5.0 0.00 0.00 0.00 80 1022.1
20181016191112 48 112 1.0 6.0 0.00 0.00 0.00 80 1022.1
20181016190541 48 112 1.0 4.0 0.00 0.00 0.00 80 1022.1
20181016190041 48 112 1.0 2.0 0.00 0.00 0.00 79 1022.1
20181016185540 48 112 1.0 2.0 0.00 0.00 0.00 79 1022.2
20181016185039 49 114 1.0 2.0 0.00 0.00 0.00 79 1022.2
20181016184539 49 112 1.0 2.0 0.00 0.00 0.00 78 1022.2
20181016184038 49 112 1.0 5.0 0.00 0.00 0.00 78 1022.1
20181016183538 49 112 1.0 4.0 0.00 0.00 0.00 78 1022.2
20181016183038 49 107 1.0 4.0 0.00 0.00 0.00 78 1022.2
20181016182537 50 112 1.0 2.0 0.00 0.00 0.00 77 1022.1
20181016182137 50 112 1.0 2.0 0.00 0.00 0.00 77 1022.1
20181016181536 50 112 1.0 4.0 0.00 0.00 0.00 77 1022.1
20181016181036 50 112 1.0 2.0 0.00 0.00 0.00 77 1022.1
20181016180535 50 112 1.0 1.0 0.00 0.00 0.00 76 1022.1
20181016180035 50 112 1.0 2.0 0.00 0.00 0.00 77 1022.0
20181016175534 51 112 1.0 2.0 0.00 0.00 0.00 76 1022.0
20181016175034 51 112 1.0 2.0 0.00 0.00 0.00 76 1022.0
20181016174534 51 112 1.0 2.0 0.00 0.00 0.00 76 1022.0
20181016174033 51 112 1.0 5.0 0.00 0.00 0.00 75 1022.0
20181016173533 51 112 1.0 2.0 0.00 0.00 0.00 75 1022.0
20181016173032 52 112 1.0 2.0 0.00 0.00 0.00 75 1022.0
20181016172532 52 112 1.0 2.0 0.00 0.00 0.00 74 1022.0
20181016172031 52 112 1.0 4.0 0.00 0.00 0.00 73 1022.0
20181016171531 52 112 1.0 2.0 0.00 0.00 0.00 73 1022.0
20181016171031 52 112 1.0 2.0 0.00 0.00 0.00 72 1022.0
20181016170600 53 112 1.0 4.0 0.00 0.00 0.00 72 1022.0
20181016170030 53 112 1.0 4.0 0.00 0.00 0.00 72 1022.0
20181016165529 53 112 1.0 2.0 0.00 0.00 0.00 71 1022.0
20181016165029 54 112 1.0 2.0 0.00 0.00 0.00 70 1022.0
20181016164528 54 112 1.0 2.0 0.00 0.00 0.00 69 1022.0
20181016164028 54 112 1.0 2.0 0.00 0.00 0.00 68 1021.9
20181016163527 55 112 1.0 2.0 0.00 0.00 0.00 67 1021.9
20181016163057 55 112 1.0 2.0 0.00 0.00 0.00 66 1021.9
20181016162527 56 112 0.0 2.0 0.00 0.00 0.00 65 1021.9
20181016162056 56 112 1.0 2.0 0.00 0.00 0.00 64 1021.8
20181016161525 57 93 1.0 2.0 0.00 0.00 0.00 64 1021.7
20181016161055 57 90 1.0 2.0 0.00 0.00 0.00 63 1021.7
20181016160555 58 90 1.0 2.0 0.00 0.00 0.00 62 1021.7
20181016160024 58 90 1.0 2.0 0.00 0.00 0.00 62 1021.7
20181016155554 58 90 1.0 2.0 0.00 0.00 0.00 61 1021.7
20181016155053 59 90 1.0 2.0 0.00 0.00 0.00 61 1021.7
20181016154553 60 90 1.0 2.0 0.00 0.00 0.00 61 1021.7
20181016154022 60 90 1.0 2.0 0.00 0.00 0.00 60 1021.7
20181016153552 61 90 1.0 2.0 0.00 0.00 0.00 59 1021.6
20181016153051 61 90 1.0 2.0 0.00 0.00 0.00 58 1021.6
20181016152521 62 90 1.0 2.0 0.00 0.00 0.00 57 1021.5
20181016152050 63 90 1.0 6.0 0.00 0.00 0.00 56 1021.5
20181016151520 64 90 1.0 2.0 0.00 0.00 0.00 56 1021.6
20181016151019 64 90 1.0 5.0 0.00 0.00 0.00 55 1021.5
20181016150549 65 90 1.0 2.0 0.00 0.00 0.00 55 1021.4
20181016150048 65 90 1.0 2.0 0.00 0.00 0.00 54 1021.4
20181016145548 65 90 1.0 2.0 0.00 0.00 0.00 54 1021.4
20181016145048 65 90 2.0 4.0 0.00 0.00 0.00 54 1021.4
20181016144517 66 96 1.0 2.0 0.00 0.00 0.00 54 1021.4
20181016144117 65 111 1.0 5.0 0.00 0.00 0.00 54 1021.3
20181016143546 65 98 1.0 4.0 0.00 0.00 0.00 54 1021.3
20181016143046 65 112 1.0 2.0 0.00 0.00 0.00 54 1021.3
20181016142545 65 128 1.0 2.0 0.00 0.00 0.00 54 1021.2
20181016142045 65 97 1.0 4.0 0.00 0.00 0.00 54 1021.3
20181016141545 65 103 2.0 4.0 0.00 0.00 0.00 54 1021.2
20181016141044 64 86 2.0 4.0 0.00 0.00 0.00 54 1021.3
20181016140544 64 87 2.0 4.0 0.00 0.00 0.00 54 1021.3
20181016140043 64 101 2.0 4.0 0.00 0.00 0.00 54 1021.3
20181016135543 64 123 1.0 4.0 0.00 0.00 0.00 55 1021.3
20181016135042 64 124 1.0 2.0 0.00 0.00 0.00 54 1021.4
20181016134542 64 106 2.0 4.0 0.00 0.00 0.00 54 1021.3
20181016134041 64 103 2.0 5.0 0.00 0.00 0.00 54 1021.4
20181016133541 64 148 1.0 4.0 0.00 0.00 0.00 54 1021.3
20181016133041 64 114 1.0 4.0 0.00 0.00 0.00 54 1021.3
20181016132540 64 147 2.0 4.0 0.00 0.00 0.00 54 1021.3
20181016132040 64 143 2.0 4.0 0.00 0.00 0.00 54 1021.3
20181016131539 64 114 1.0 2.0 0.00 0.00 0.00 54 1021.3
20181016131039 64 144 1.0 4.0 0.00 0.00 0.00 54 1021.2
20181016130539 64 136 1.0 4.0 0.00 0.00 0.00 54 1021.2
20181016130038 64 132 1.0 4.0 0.00 0.00 0.00 53 1021.3
20181016125538 64 135 2.0 5.0 0.00 0.00 0.00 53 1021.3
20181016125037 64 154 1.0 4.0 0.00 0.00 0.00 54 1021.3
20181016124537 64 132 1.0 4.0 0.00 0.00 0.00 53 1021.3
20181016124037 64 121 2.0 4.0 0.00 0.00 0.00 53 1021.3
20181016123536 64 121 2.0 4.0 0.00 0.00 0.00 53 1021.3
20181016123036 64 142 1.0 4.0 0.00 0.00 0.00 53 1021.3
20181016122535 64 137 1.0 2.0 0.00 0.00 0.00 52 1021.3
20181016122034 64 118 1.0 4.0 0.00 0.00 0.00 51 1021.3
20181016121534 64 77 1.0 2.0 0.00 0.00 0.00 51 1021.3
20181016121034 64 60 1.0 2.0 0.00 0.00 0.00 52 1021.3
20181016120604 64 240 0.0 5.0 0.00 0.00 0.00 51 1021.3
20181016120033 63 242 1.0 5.0 0.00 0.00 0.00 51 1021.3
20181016115532 63 232 1.0 4.0 0.00 0.00 0.00 52 1021.3
20181016115032 63 225 1.0 5.0 0.00 0.00 0.00 52 1021.3
20181016114531 63 257 1.0 9.0 0.00 0.00 0.00 53 1021.2
20181016114032 63 247 0.0 9.0 0.00 0.00 0.00 53 1021.3
20181016113531 62 242 1.0 4.0 0.00 0.00 0.00 53 1021.4
20181016113030 62 255 2.0 4.0 0.00 0.00 0.00 54 1021.4
20181016112531 62 232 1.0 4.0 0.00 0.00 0.00 54 1021.4
20181016112030 62 219 1.0 2.0 0.00 0.00 0.00 55 1021.4
20181016111529 61 217 1.0 2.0 0.00 0.00 0.00 55 1021.4
20181016111029 61 95 1.0 2.0 0.00 0.00 0.00 56 1021.4
20181016110528 61 115 1.0 2.0 0.00 0.00 0.00 55 1021.4
20181016110027 61 315 0.0 2.0 0.00 0.00 0.00 56 1021.4
20181016105527 60 304 1.0 2.0 0.00 0.00 0.00 57 1021.5
20181016105027 60 219 0.0 2.0 0.00 0.00 0.00 58 1021.6
20181016104526 60 239 0.0 2.0 0.00 0.00 0.00 58 1021.5
20181016104026 60 242 0.0 2.0 0.00 0.00 0.00 59 1021.5
20181016103525 59 238 1.0 4.0 0.00 0.00 0.00 59 1021.6
20181016103027 59 211 0.0 2.0 0.00 0.00 0.00 60 1021.7
20181016102525 59 230 1.0 4.0 0.00 0.00 0.00 61 1021.7
20181016102024 58 192 1.0 2.0 0.00 0.00 0.00 61 1021.6
20181016101524 58 105 1.0 4.0 0.00 0.00 0.00 62 1021.4
20181016101024 57 151 1.0 2.0 0.00 0.00 0.00 63 1021.5
20181016100523 57 131 0.0 2.0 0.00 0.00 0.00 63 1021.6
20181016100023 57 340 0.0 1.0 0.00 0.00 0.00 64 1021.6
20181016095522 57 270 1.0 2.0 0.00 0.00 0.00 64 1021.6
20181016095052 57 74 0.0 2.0 0.00 0.00 0.00 65 1021.7
20181016094552 56 86 0.0 2.0 0.00 0.00 0.00 66 1021.7
20181016094021 56 113 1.0 5.0 0.00 0.00 0.00 67 1021.7
20181016093551 55 149 1.0 2.0 0.00 0.00 0.00 68 1021.7
20181016093050 55 248 0.0 4.0 0.00 0.00 0.00 69 1021.7